Regional Weather Roundup
Issued by NWS

Home | Current Version | Previous Version | Text Only | Print | Product List | Glossary On
Versions: 1 2 3 4 5 6 7 8 9 10 11 12 13 14 15 16 17 18 19 20 21 22 23 24 25 26 27 28 29 30 31 32 33 34 35 36 37 38 39 40 41 42 43 44 45 46 47 48 49 50
387
ASUS42 KFFC 110103
RWRGA
WEATHER ROUNDUP FOR GEORGIA
NATIONAL WEATHER SERVICE PEACHTREE CITY GA
800 PM EST WED FEB 10 2016

NOTE: "FAIR" INDICATES FEW OR NO CLOUDS BELOW 12,000 FEET WITH NO
SIGNIFICANT WEATHER AND/OR OBSTRUCTIONS TO VISIBILITY.

* = USE WITH CAUTION. THE STATIONS MARKED WITH AN ASTERISK MAY NOT
REPORT WEATHER SUCH AS PRECIPITATION, FOG, OR THUNDER AND ARE NOT
QUALITY CONTROLLED BY NWS.

THE REMARK "TC" DENOTES TEMPERATURE READING IN DEGREES CELSIUS.

GAZ001>058-110200-
NORTH GEORGIA

CITY           SKY/WX    TMP DP  RH WIND       PRES   REMARKS
ATLANTA        CLOUDY    36   8  31 NW8       30.12S WCI  30
ATHENS         CLOUDY    33  12  41 W9G18     30.11R WCI  25
CHAMBLEE       CLOUDY    33  10  38 W9        30.13R WCI  25
PEACHTREE CITY CLOUDY    37   7  28 W3        30.14S
ROME             N/A     32  11  41 NW6       30.16R WCI  26
WEST ATLANTA   MOCLDY    35   8  32 W9        30.14R WCI  28
GAINESVILLE    CLOUDY    30   9  41 W13G21    30.10R WCI  20
CARTERSVILLE   CLOUDY    33  10  38 VRB3      30.16R


CITY           SKY/WX    TMP DP  RH WIND       PRES   REMARKS
LAWRENCEVILLE* CLEAR     32   9  37 W14       30.10R WCI  22
MARIETTA       CLOUDY    33  10  38 W8        30.12R WCI  25
KENNESAW*      CLOUDY    32   7  34 W10G18    30.14R WCI  24
BLAIRSVILLE*     N/A     27 -28   8 NW9       30.06S WCI  18
$$

GAZ059>098-102>109-110200-
CENTRAL GEORGIA

CITY           SKY/WX    TMP DP  RH WIND       PRES   REMARKS
AUGUSTA-BUSH   CLEAR     31  13  47 SW5       30.13R WCI  26
COLUMBUS       CLEAR     38  10  31 SW6       30.17F WCI  33
MACON          PTCLDY    37  13  37 SW3       30.16R
ROBINS AFB     CLEAR     39  10  29 W8        30.16R WCI  33


CITY           SKY/WX    TMP DP  RH WIND       PRES   REMARKS
LAGRANGE*      PTCLDY    41  17  38 W3        30.15S
SYLVANIA*      CLEAR     36  21  54 CALM      30.15S
MILLEDGEVILLE* CLOUDY    37  10  32 CALM      30.14S
$$

GAZ099>101-110>166-110200-
SOUTH GEORGIA

CITY           SKY/WX    TMP DP  RH WIND       PRES   REMARKS
SAVANNAH       CLEAR     37  14  38 SW8       30.17R WCI  31
VALDOSTA       CLEAR     35  24  64 CALM      30.22S
ALMA           CLEAR     36  23  59 SW3       30.19R
ST SIMONS      CLEAR     40  18  41 W7        30.21R
FT STEWART     CLEAR     36  17  47 SW1       30.16R
ALBANY         CLEAR     37  18  46 W3        30.23R
HUNTER AFB     CLEAR     37  16  42 W8        30.15R WCI  31
MOODY AFB      CLEAR     39  17  40 S5        30.19F
BRUNSWICK      CLEAR     39  21  48 W5        30.22R


CITY           SKY/WX    TMP DP  RH WIND       PRES   REMARKS
BAINBRIDGE*    PTCLDY    37  21  52 SW6       30.23S WCI  33
MOULTRIE*      CLEAR     41  21  45 CALM      30.21F
VIDALIA*       CLEAR     37  18  44 W5        30.17R WCI  34
WAYCROSS*      CLEAR     40  23  51 SW3       30.21R
DOUGLAS*       CLEAR     37  23  56 W5        30.21R WCI  34
$$




USA.gov is the U.S. government's official web portal to all federal, state and local government web resources and services.